Starlink 31140

operational
NORAD ID: 58767 Int'l Des: 2024-011 Owner: SPXS Country: US Constellation: starlink
LEOCIRCULAR

关于 Starlink 31140

正在加载描述...

实时位置

正在加载3D地球...

即将过境

高度历史

Altitude vs Time

uPlot chart will show altitude changes over time

两行轨道根数

1 58767U 24011C 25257.81577725 -.00001038 00000-0 -22919-4 0 9995
2 58767 53.1608 110.5623 0001640 93.6973 266.4215 15.30186655 93349
Epoch: Sep 14, 2025 • Age: 26 hours

当前状态

高度 475.6 km
速度 7.63 km/s
星下点 3.00°N, 33.16°W
发射日期 Jan 14, 2024
运行时间 1.6 years
类型 internet

技术详情

分类 Payload
质量 730.00 kg
干质量 700.00 kg
总质量 730.00 kg
长度 0.30 m
直径 4.10 m
跨度 29.00 m
形状 Box + pan
制造商 SPXS
平台类型 Starlink V2M
阶段状态 In Orbit
所有者/国家 SPXS/US

大型星座

Loading constellations...